Regional Weather Roundup
Issued by NWS Green Bay, WI

Home | Current Version | Previous Version | Graphics & Text | Print | Product List | Glossary Off
Versions: 1 2 3 4 5 6 7 8 9 10 11 12 13 14 15 16 17 18 19 20 21 22 23 24 25 26 27 28 29 30 31 32 33 34 35 36 37 38 39 40 41 42 43 44 45 46 47 48 49 50

000
ASUS43 KGRB 291310
RWRGRB

NORTH-CENTRAL AND NORTHEAST WISCONSIN REGIONAL WEATHER ROUNDUP
NATIONAL WEATHER SERVICE GREEN BAY WI
700 AM CST MON DEC 29 2014

WIZ005-009-010>012-018-019-291400-
NORTH CENTRAL WISCONSIN

CITY           SKY/WX    TMP DP  RH WIND       PRES   REMARKS
IRONWOOD       CLOUDY     3   1  92 W7        30.35R WCI  -9
MANITOWISH WTR FLURRIES  -3  -6  84 CALM      30.32R
ARBOR VITAE    FLURRIES   1  -4  82 CALM      30.32R
EAGLE RIVER    FLURRIES  -3  -8  79 CALM      30.30S
LAND O LAKES   FLURRIES   6   1  81 W3        30.30S
RHINELANDER    MOCLDY    -7 -11  83 CALM      30.31R
PHILLIPS       PTCLDY   -17 -21  79 CALM      30.35R HAZE
ANTIGO         MOCLDY    -1  -4  87 NW7       30.32S WCI -15
TOMAHAWK       MOCLDY   -13 -18  79 CALM      30.35R
MERRILL        MOCLDY    -4  -7  84 CALM      30.35S
$$

WIZ013-073-291400-
NORTHEAST WISCONSIN

CITY           SKY/WX    TMP DP  RH WIND       PRES   REMARKS
IRON MOUNTAIN    N/A     -1  -5  82 CALM      30.31R
MARINETTE      MOCLDY    10   3  72 NW6       30.36R WCI   1
OCONTO         MOCLDY    12   6  77 NW3       30.39R
$$

WIZ017-030-035>037-045-291400-
CENTRAL WISCONSIN

CITY           SKY/WX    TMP DP  RH WIND       PRES   REMARKS
MEDFORD        PTCLDY   N/A N/A N/A N5        30.35R
WAUSAU         MOCLDY     2  -2  83 NW5       30.35R WCI  -8
MOSINEE        CLEAR      1   0  92 NW3       30.36R
MARSHFIELD     MOCLDY     3  -2  79 NW6       30.36R WCI  -8
WISC RAPIDS    MOCLDY     9   2  73 N6        30.40R WCI  -1
STEVENS POINT  MOCLDY     5   0  80 CALM      30.39R
WAUPACA        MOCLDY    14   7  73 NW6       30.40R WCI   5
SHAWANO        CLOUDY    11   6  79 W3        30.39R
CLINTONVILLE   MOCLDY    12   5  73 N7        30.38R WCI   2
$$

WIZ038-039-048-051-291400-
FOX VALLEY

CITY           SKY/WX    TMP DP  RH WIND       PRES   REMARKS
NWS GREEN BAY  CLOUDY    15   8  73 NW7       30.39R WCI   5
APPLETON       PTCLDY    12   7  79 NW6       30.38R WCI   3
OSHKOSH        MOCLDY    16   7  67 NW6       30.38R WCI   7
FOND DU LAC    MOCLDY    17   7  64 N8        30.38R WCI   7
$$

WIZ022-050-052-291400-
EAST CENTRAL WISCONSIN

CITY           SKY/WX    TMP DP  RH WIND       PRES   REMARKS
STURGEON BAY   MOCLDY    14   7  73 N13       30.37R WCI   0
MANITOWOC      MOCLDY    16  11  80 NW8       30.38R WCI   5
SHEBOYGAN      MOCLDY    16   7  67 N7        30.38R WCI   6
$$

LMZ563-521-522-541>543-291400-
LAKESHORE

STATION/POSITION TIME  TEMP    WIND        PRES    VSBY  WAVE
                       AIR SEA DIR/SP/G                  HT/PER
                 (UTC) (F)     (DEG/KT/KT) (MB)    (MI)  (FT/S)
SHEBOYGAN LKSHOR 1300   17 35  320/ 10/ 11 1030.2R
KEWAUNEE LKSHORE 1300   15     330/  8/ 12 1027.2F
ALGOMA MARINA    1200          340/ 12/ 17   N/A
NORTHPORT PIER   1300   17     310/ 17/ 21 1027.4S
SISTER BAY LKSHO 1200          320/ 18/ 21   N/A
STURGEON BAY CG  1300   15     320/  5     1028.3      6   0
CHAMBERS ISLAND  1300   14     310/ 12/ 17 1028.1R
MENOMINEE LKSHOR 1300   12     300/  8/ 13 1028.8S
$$



USA.gov is the U.S. government's official web portal to all federal, state and local government web resources and services.